TimeEDT,TemperatureF,Dew PointF,Humidity,Sea Level PressureIn,VisibilityMPH,Wind Direction,Wind SpeedMPH,Gust SpeedMPH,PrecipitationIn,Events,Conditions,WindDirDegrees,DateUTC
12:15 AM,28.4,8.6,43,30.14,10.0,WNW,3.5,-,N/A,,Clear,290,2013-03-15 04:15:00
12:35 AM,28.4,8.6,43,30.14,10.0,West,3.5,-,N/A,,Clear,270,2013-03-15 04:35:00
12:55 AM,28.4,8.6,43,30.14,10.0,Calm,Calm,-,N/A,,Clear,0,2013-03-15 04:55:00
1:15 AM,28.4,8.6,43,30.12,10.0,Calm,Calm,-,N/A,,Clear,0,2013-03-15 05:15:00
1:35 AM,28.4,8.6,43,30.12,10.0,Calm,Calm,-,N/A,,Clear,0,2013-03-15 05:35:00
1:55 AM,28.4,8.6,43,30.11,10.0,West,4.6,-,N/A,,Clear,270,2013-03-15 05:55:00
2:15 AM,28.4,8.6,43,30.11,10.0,West,5.8,-,N/A,,Clear,270,2013-03-15 06:15:00
2:35 AM,28.4,8.6,43,30.11,10.0,West,4.6,-,N/A,,Clear,270,2013-03-15 06:35:00
2:55 AM,28.4,8.6,43,30.11,10.0,WNW,3.5,-,N/A,,Clear,290,2013-03-15 06:55:00
3:15 AM,28.4,8.6,43,30.11,10.0,West,3.5,-,N/A,,Clear,280,2013-03-15 07:15:00
3:35 AM,28.4,10.4,47,30.10,10.0,Calm,Calm,-,N/A,,Clear,0,2013-03-15 07:35:00
3:55 AM,28.4,10.4,47,30.10,10.0,West,5.8,-,N/A,,Clear,260,2013-03-15 07:55:00
4:15 AM,26.6,10.4,51,30.09,10.0,SW,3.5,-,N/A,,Clear,220,2013-03-15 08:15:00
4:35 AM,23.0,10.4,59,30.09,10.0,SSW,4.6,-,N/A,,Clear,210,2013-03-15 08:35:00
4:55 AM,23.0,10.4,59,30.09,10.0,South,3.5,-,N/A,,Clear,190,2013-03-15 08:55:00
5:15 AM,23.0,10.4,59,30.08,10.0,SSW,4.6,-,N/A,,Clear,210,2013-03-15 09:15:00
5:35 AM,24.8,10.4,54,30.08,10.0,Calm,Calm,-,N/A,,Clear,0,2013-03-15 09:35:00
5:55 AM,23.0,10.4,59,30.08,10.0,Calm,Calm,-,N/A,,Clear,0,2013-03-15 09:55:00
6:15 AM,24.8,10.4,54,30.09,10.0,Calm,Calm,-,N/A,,Clear,0,2013-03-15 10:15:00
6:35 AM,23.0,10.4,59,30.09,10.0,Calm,Calm,-,N/A,,Clear,0,2013-03-15 10:35:00
6:55 AM,23.0,12.2,63,30.09,10.0,Calm,Calm,-,N/A,,Clear,0,2013-03-15 10:55:00
7:15 AM,23.0,12.2,63,30.09,10.0,South,3.5,-,N/A,,Clear,170,2013-03-15 11:15:00
7:35 AM,23.0,12.2,63,30.07,10.0,South,4.6,-,N/A,,Clear,180,2013-03-15 11:35:00
7:55 AM,23.0,12.2,63,30.07,10.0,SSW,4.6,-,N/A,,Clear,200,2013-03-15 11:55:00
8:15 AM,24.8,12.2,59,30.07,10.0,South,4.6,-,N/A,,Clear,190,2013-03-15 12:15:00
8:35 AM,26.6,14.0,59,30.07,10.0,South,3.5,-,N/A,,Clear,190,2013-03-15 12:35:00
8:55 AM,28.4,14.0,55,30.07,10.0,SW,5.8,-,N/A,,Mostly Cloudy,230,2013-03-15 12:55:00
9:15 AM,30.2,14.0,51,30.06,10.0,SW,8.1,-,N/A,,Mostly Cloudy,230,2013-03-15 13:15:00
9:35 AM,30.2,14.0,51,30.06,10.0,SW,6.9,-,N/A,,Overcast,230,2013-03-15 13:35:00
9:55 AM,30.2,15.8,55,30.05,10.0,SW,5.8,-,N/A,,Overcast,230,2013-03-15 13:55:00
10:15 AM,32.0,17.6,55,30.04,10.0,SW,6.9,-,N/A,,Overcast,230,2013-03-15 14:15:00
10:35 AM,32.0,17.6,55,30.04,10.0,WSW,8.1,-,N/A,,Mostly Cloudy,240,2013-03-15 14:35:00
11:55 AM,37.4,21.2,52,30.02,10.0,SW,10.4,16.1,N/A,,Scattered Clouds,230,2013-03-15 15:55:00
12:15 PM,39.2,21.2,49,30.01,10.0,West,11.5,-,N/A,,Clear,260,2013-03-15 16:15:00
12:35 PM,41.0,23.0,49,30.00,10.0,SW,9.2,18.4,N/A,,Clear,220,2013-03-15 16:35:00
12:55 PM,42.8,23.0,46,29.99,10.0,WSW,12.7,18.4,N/A,,Clear,240,2013-03-15 16:55:00
1:15 PM,44.6,23.0,43,29.97,10.0,WSW,10.4,23.0,N/A,,Clear,240,2013-03-15 17:15:00
1:35 PM,44.6,23.0,43,29.96,10.0,WSW,10.4,20.7,N/A,,Clear,240,2013-03-15 17:35:00
1:55 PM,46.4,24.8,43,29.95,10.0,SW,16.1,-,N/A,,Clear,230,2013-03-15 17:55:00
2:15 PM,46.4,24.8,43,29.93,10.0,WSW,10.4,-,N/A,,Clear,250,2013-03-15 18:15:00
2:35 PM,50.0,24.8,37,29.92,10.0,West,15.0,18.4,N/A,,Clear,270,2013-03-15 18:35:00
2:55 PM,50.0,26.6,40,29.91,10.0,WSW,9.2,18.4,N/A,,Clear,250,2013-03-15 18:55:00
3:15 PM,50.0,26.6,40,29.90,10.0,West,13.8,19.6,N/A,,Clear,270,2013-03-15 19:15:00
3:35 PM,51.8,26.6,38,29.90,10.0,West,13.8,24.2,N/A,,Clear,270,2013-03-15 19:35:00
3:55 PM,51.8,24.8,35,29.89,10.0,WSW,13.8,20.7,N/A,,Clear,250,2013-03-15 19:55:00
4:15 PM,51.8,24.8,35,29.89,10.0,West,16.1,21.9,N/A,,Clear,270,2013-03-15 20:15:00
4:35 PM,51.8,23.0,33,29.89,10.0,West,12.7,23.0,N/A,,Scattered Clouds,270,2013-03-15 20:35:00
4:55 PM,51.8,23.0,33,29.88,10.0,West,11.5,18.4,N/A,,Mostly Cloudy,260,2013-03-15 20:55:00
5:15 PM,51.8,23.0,33,29.88,10.0,West,10.4,20.7,N/A,,Scattered Clouds,260,2013-03-15 21:15:00
5:35 PM,51.8,23.0,33,29.88,10.0,West,11.5,20.7,N/A,,Mostly Cloudy,270,2013-03-15 21:35:00
5:55 PM,50.0,23.0,35,29.88,10.0,West,9.2,16.1,N/A,,Mostly Cloudy,270,2013-03-15 21:55:00
6:15 PM,50.0,23.0,35,29.88,10.0,West,9.2,-,N/A,,Scattered Clouds,260,2013-03-15 22:15:00
6:35 PM,50.0,23.0,35,29.87,10.0,WSW,6.9,-,N/A,,Scattered Clouds,250,2013-03-15 22:35:00
6:55 PM,50.0,24.8,37,29.87,10.0,West,8.1,-,N/A,,Clear,260,2013-03-15 22:55:00
7:15 PM,50.0,24.8,37,29.88,10.0,West,6.9,-,N/A,,Clear,260,2013-03-15 23:15:00
7:35 PM,48.2,24.8,40,29.88,10.0,WSW,5.8,-,N/A,,Clear,250,2013-03-15 23:35:00
7:55 PM,46.4,24.8,43,29.88,10.0,West,4.6,-,N/A,,Clear,260,2013-03-15 23:55:00
8:15 PM,46.4,24.8,43,29.89,10.0,West,4.6,-,N/A,,Scattered Clouds,270,2013-03-16 00:15:00
8:35 PM,46.4,24.8,43,29.89,10.0,Calm,Calm,-,N/A,,Scattered Clouds,0,2013-03-16 00:35:00
8:55 PM,44.6,26.6,49,29.89,10.0,Calm,Calm,-,N/A,,Scattered Clouds,0,2013-03-16 00:55:00
9:15 PM,44.6,26.6,49,29.88,10.0,Calm,Calm,-,N/A,,Scattered Clouds,0,2013-03-16 01:15:00
9:35 PM,46.4,26.6,46,29.89,10.0,West,3.5,-,N/A,,Scattered Clouds,280,2013-03-16 01:35:00
9:55 PM,46.4,26.6,46,29.89,10.0,West,5.8,-,N/A,,Overcast,260,2013-03-16 01:55:00
10:15 PM,44.6,26.6,49,29.89,10.0,WSW,4.6,-,N/A,,Scattered Clouds,250,2013-03-16 02:15:00
10:35 PM,46.4,26.6,46,29.89,10.0,West,4.6,-,N/A,,Scattered Clouds,270,2013-03-16 02:35:00
10:55 PM,46.4,26.6,46,29.89,10.0,West,5.8,-,N/A,,Mostly Cloudy,260,2013-03-16 02:55:00
11:15 PM,46.4,26.6,46,29.89,10.0,West,5.8,-,N/A,,Overcast,270,2013-03-16 03:15:00
11:35 PM,46.4,26.6,46,29.89,10.0,WNW,6.9,-,N/A,,Overcast,300,2013-03-16 03:35:00
11:55 PM,46.4,26.6,46,29.89,10.0,West,4.6,-,N/A,,Overcast,270,2013-03-16 03:55:00